Terug naar catalogus

COSMOS 1365

ActiefMilitairLEO
NORAD 13175·PAYLOAD·🇷🇺 Russia

Gelanceerd May 14, 1982 vanaf Baikonur Cosmodrome

Loading…

Volgende Passages (komende 24 uur)

TLE

VersSource: Space-Track

Epoch: Sep 14, 2026, 11:45 UTC

1 13175U 82043A   26257.49013649 -.00000069  00000-0  16738-4 0  9997
2 13175  65.0707 332.4172 0054768 358.2754  13.8224 13.89786685252370

Volg COSMOS 1365 in realtime met AllMySat

Download on the App Store